Stations météo

réclame
Mon MeteoGroup
Threave, Grande-Bretagne (99090): Température de l'air & dewpoint: 12.10.2017 10:00:00 - 18.10.2017 10:00:00 (BST)Threave, Grande-Bretagne (99090): Température de l'air -20cm & Température de l'air -100cm: 12.10.2017 10:00:00 - 18.10.2017 10:00:00 (BST)Threave, Grande-Bretagne (99090): Quantités de précipitations: 12.10.2017 10:00:00 - 18.10.2017 10:00:00 (BST)
Date & Time tt [°C] td [°C] tt -20cm [°C] tt -100cm [°C] rr [mm]
18.10.2017 10:00:00 - - - - -
18.10.2017 09:00:00 8,0 8,0 - - 0,0
18.10.2017 08:00:00 7,4 7,3 - - 0,0
18.10.2017 07:00:00 6,9 6,8 - - 0,0
18.10.2017 06:00:00 6,6 6,5 - - 0,0
18.10.2017 05:00:00 6,4 6,2 - - 0,0
18.10.2017 04:00:00 6,3 6,2 - - 0,0
18.10.2017 03:00:00 5,1 4,9 - - 0,0
18.10.2017 02:00:00 5,4 5,1 - - 0,2
18.10.2017 01:00:00 6,2 5,9 - - 0,0
18.10.2017 00:00:00 6,4 5,8 - - 0,0
17.10.2017 23:00:00 7,8 7,5 - - 0,0
17.10.2017 22:00:00 7,8 7,3 - - 0,0
17.10.2017 21:00:00 8,6 7,8 - - 0,0
17.10.2017 20:00:00 9,3 8,3 - - 0,2
17.10.2017 19:00:00 10,3 9,2 - - 0,2
17.10.2017 18:00:00 11,1 8,6 - - 0,0
17.10.2017 17:00:00 12,9 9,5 - - 0,0
17.10.2017 16:00:00 11,6 9,7 - - 0,2
17.10.2017 15:00:00 13,8 10,0 - - 0,0
17.10.2017 14:00:00 13,8 10,3 - - 0,0
17.10.2017 13:00:00 12,0 9,0 - - 0,0
17.10.2017 12:00:00 11,1 9,1 - - 0,0
17.10.2017 11:00:00 11,4 8,3 - - 0,0
17.10.2017 10:00:00 11,2 8,1 12,9 12,7 0,0
17.10.2017 09:00:00 11,1 8,1 - - 0,0
17.10.2017 08:00:00 11,1 8,0 - - 0,0
17.10.2017 07:00:00 11,2 8,0 - - 0,0
17.10.2017 06:00:00 11,3 7,9 - - 0,0
17.10.2017 05:00:00 11,7 7,8 - - 0,0
17.10.2017 04:00:00 11,9 8,2 - - 0,0
17.10.2017 03:00:00 12,3 8,4 - - 0,0
17.10.2017 02:00:00 13,0 9,2 - - 0,0
17.10.2017 01:00:00 13,1 9,9 - - 0,0
17.10.2017 00:00:00 13,4 10,6 - - 0,0
16.10.2017 23:00:00 13,4 10,6 - - 0,0
16.10.2017 22:00:00 13,2 10,6 - - 0,0
16.10.2017 21:00:00 12,9 10,9 - - 0,6
16.10.2017 20:00:00 12,3 11,3 - - 1,4
16.10.2017 19:00:00 12,2 10,5 - - 0,2
16.10.2017 18:00:00 14,4 8,5 - - 0,0
16.10.2017 17:00:00 15,0 9,0 - - 0,0
16.10.2017 16:00:00 15,5 9,6 - - 0,0
16.10.2017 15:00:00 16,9 14,0 - - 0,0
16.10.2017 14:00:00 16,7 13,9 - - 0,0
16.10.2017 13:00:00 15,2 13,2 - - 0,0
16.10.2017 12:00:00 14,4 13,0 - - 0,0
16.10.2017 11:00:00 13,1 12,8 - - 0,0
16.10.2017 10:00:00 12,4 12,2 13,0 12,7 1,2
16.10.2017 09:00:00 12,5 12,3 - - 0,6
16.10.2017 08:00:00 13,0 12,8 - - 0,0
16.10.2017 07:00:00 12,8 12,8 - - 0,0
16.10.2017 06:00:00 11,6 11,4 - - 0,2
16.10.2017 05:00:00 11,1 10,9 - - 0,2
16.10.2017 04:00:00 10,8 10,6 - - 0,2
16.10.2017 03:00:00 10,8 10,6 - - 0,2
16.10.2017 02:00:00 10,7 10,4 - - 0,4
16.10.2017 01:00:00 10,8 10,4 - - 0,2
16.10.2017 00:00:00 11,2 10,4 - - 0,0
15.10.2017 23:00:00 11,2 10,6 - - 0,0
15.10.2017 22:00:00 11,2 10,2 - - 0,0
15.10.2017 21:00:00 11,2 10,2 - - 0,0
15.10.2017 20:00:00 11,8 10,7 - - 0,0
15.10.2017 19:00:00 12,5 11,2 - - 0,0
15.10.2017 18:00:00 14,0 13,7 - - 0,2
15.10.2017 17:00:00 14,1 13,6 - - 0,0
15.10.2017 16:00:00 14,2 13,6 - - 0,2
15.10.2017 15:00:00 14,2 13,4 - - 0,6
15.10.2017 14:00:00 14,4 12,9 - - 0,0
15.10.2017 13:00:00 14,4 12,6 - - 0,0
15.10.2017 12:00:00 14,3 12,4 - - 0,0
15.10.2017 11:00:00 14,4 12,3 - - 0,0
15.10.2017 10:00:00 14,2 11,7 12,9 12,7 0,0
15.10.2017 09:00:00 14,0 11,4 - - 0,0
15.10.2017 08:00:00 13,8 12,3 - - 0,0
15.10.2017 07:00:00 13,8 12,3 - - 0,0
15.10.2017 06:00:00 14,0 12,6 - - 0,0
15.10.2017 05:00:00 14,2 12,7 - - 0,2
15.10.2017 04:00:00 14,5 12,8 - - 0,0
15.10.2017 03:00:00 14,2 12,8 - - 0,0
15.10.2017 02:00:00 14,5 12,6 - - 0,0
15.10.2017 01:00:00 14,5 12,8 - - 0,0
15.10.2017 00:00:00 14,5 12,5 - - 0,0
14.10.2017 23:00:00 14,4 12,7 - - 0,0
14.10.2017 22:00:00 14,4 12,7 - - 0,0
14.10.2017 21:00:00 14,2 12,6 - - 0,0
14.10.2017 20:00:00 14,2 12,4 - - 0,0
14.10.2017 19:00:00 14,4 13,2 - - 0,0
14.10.2017 18:00:00 14,7 13,9 - - 0,2
14.10.2017 17:00:00 14,8 14,4 - - 0,0
14.10.2017 16:00:00 14,7 14,5 - - 0,0
14.10.2017 15:00:00 14,0 13,8 - - 0,4
14.10.2017 14:00:00 13,6 13,2 - - 1,0
14.10.2017 13:00:00 13,6 13,2 - - 0,4
14.10.2017 12:00:00 13,5 13,1 - - 0,2
14.10.2017 11:00:00 12,7 12,1 - - 0,2
14.10.2017 10:00:00 12,6 12,1 12,7 12,7 0,4
14.10.2017 09:00:00 12,7 12,2 - - 0,0
14.10.2017 08:00:00 12,7 12,2 - - 0,0
14.10.2017 07:00:00 12,9 12,5 - - 0,2
14.10.2017 06:00:00 12,9 12,6 - - 0,0
14.10.2017 05:00:00 12,6 12,2 - - 0,0
14.10.2017 04:00:00 12,5 11,9 - - 0,2
14.10.2017 03:00:00 13,0 12,7 - - 0,0
14.10.2017 02:00:00 13,0 12,7 - - 0,0
14.10.2017 01:00:00 12,9 12,6 - - 0,0
14.10.2017 00:00:00 12,7 12,4 - - 0,0
13.10.2017 23:00:00 12,5 12,1 - - 0,2
13.10.2017 22:00:00 12,7 12,4 - - 0,4
13.10.2017 21:00:00 12,6 12,3 - - 0,2
13.10.2017 20:00:00 12,9 12,5 - - 0,8
13.10.2017 19:00:00 12,9 12,5 - - 0,6
13.10.2017 18:00:00 13,4 12,6 - - 0,4
13.10.2017 17:00:00 15,0 14,6 - - 0,8
13.10.2017 16:00:00 15,6 15,0 - - 0,8
13.10.2017 15:00:00 16,5 15,2 - - 0,0
13.10.2017 14:00:00 16,1 15,1 - - 0,2
13.10.2017 13:00:00 16,0 15,3 - - 2,4
13.10.2017 12:00:00 16,8 15,2 - - 0,0
13.10.2017 11:00:00 16,8 15,0 - - 0,0
13.10.2017 10:00:00 16,2 15,0 12,2 12,7 0,0
13.10.2017 09:00:00 15,7 14,6 - - 0,0
13.10.2017 08:00:00 15,8 14,9 - - 0,0
13.10.2017 07:00:00 14,9 14,4 - - 0,0
13.10.2017 06:00:00 15,3 14,5 - - 0,0
13.10.2017 05:00:00 15,2 14,5 - - 0,0
13.10.2017 04:00:00 14,9 14,3 - - 0,0
13.10.2017 03:00:00 15,1 14,5 - - 0,0
13.10.2017 02:00:00 15,0 14,3 - - 0,0
13.10.2017 01:00:00 15,0 14,2 - - 0,0
13.10.2017 00:00:00 14,7 14,1 - - 0,8
12.10.2017 23:00:00 14,2 13,8 - - 1,0
12.10.2017 22:00:00 13,8 13,3 - - 1,0
12.10.2017 21:00:00 13,4 12,6 - - 1,0
12.10.2017 20:00:00 12,9 12,0 - - 0,6
12.10.2017 19:00:00 13,0 10,0 - - 0,0
12.10.2017 18:00:00 12,5 9,2 - - 0,0
12.10.2017 17:00:00 12,8 8,0 - - 0,0
12.10.2017 16:00:00 13,0 7,6 - - 0,0
12.10.2017 15:00:00 13,8 8,8 - - 0,0
12.10.2017 14:00:00 12,8 8,9 - - 0,0
12.10.2017 13:00:00 13,0 9,6 - - 0,0
12.10.2017 12:00:00 12,4 9,0 - - 0,0
12.10.2017 11:00:00 11,7 8,5 - - 0,0
12.10.2017 10:00:00 11,3 8,6 12,2 12,7 0,0

tt = Température de l'air
td = dewpoint
tt -20cm = Température de l'air -20cm
tt -100cm = Température de l'air -100cm
rr = Quantités de précipitations

stations d'obs. à proximité